Satellite-Ground Cal/Val Site Overpasses Predictions

Prediction of Satellite NPP Overpassing Cal/Val Site: Antarctic Dome C

Ground Cal/Val Site Location: Latitude: -75.10, Longitude: 123.35; Satellite-Ground Site NADIR distance within 100 km.

Table of predicted overpasses for the next 14.0 days since TLE Epoch: 11/11/2016
Interval Starting Time Ending Time Minimum Distance Time Minimum Distance (km)
1 11/12/2016 07:38:25 11/12/2016 07:38:52 11/12/2016 07:38:38 39.27
2 11/13/2016 07:19:39 11/13/2016 07:19:59 11/13/2016 07:19:49 70.60
3 11/15/2016 15:01:54 11/15/2016 15:02:18 11/15/2016 15:02:06 58.58
4 11/16/2016 14:43:03 11/16/2016 14:43:28 11/16/2016 14:43:16 50.71
5 11/17/2016 07:44:45 11/17/2016 07:45:04 11/17/2016 07:44:55 74.70
6 11/18/2016 07:25:51 11/18/2016 07:26:19 11/18/2016 07:26:05 33.04
7 11/20/2016 15:08:18 11/20/2016 15:08:25 11/20/2016 15:08:22 96.56
8 11/21/2016 14:49:18 11/21/2016 14:49:47 11/21/2016 14:49:32 14.81


NCC Satellite Cal/Val Overpasses Prediction Service
